TimeMST,TemperatureF,Dew PointF,Humidity,Sea Level PressureIn,VisibilityMPH,Wind Direction,Wind SpeedMPH,Gust SpeedMPH,PrecipitationIn,Events,Conditions,WindDirDegrees,DateUTC
12:53 AM,36.0,-5.1,17,30.22,10.0,SE,5.8,-,N/A,,Clear,140,2012-11-13 07:53:00
1:53 AM,34.0,-5.1,19,30.21,10.0,ESE,4.6,-,N/A,,Clear,120,2012-11-13 08:53:00
2:53 AM,30.9,-5.1,21,30.21,10.0,ESE,6.9,-,N/A,,Clear,110,2012-11-13 09:53:00
3:53 AM,30.9,-5.1,21,30.20,10.0,ESE,6.9,-,N/A,,Clear,110,2012-11-13 10:53:00
4:53 AM,30.0,-5.1,22,30.22,10.0,ESE,6.9,-,N/A,,Clear,110,2012-11-13 11:53:00
5:53 AM,28.0,-5.1,24,30.25,10.0,East,5.8,-,N/A,,Clear,100,2012-11-13 12:53:00
6:53 AM,28.0,-5.1,24,30.27,10.0,Calm,Calm,-,N/A,,Clear,0,2012-11-13 13:53:00
7:53 AM,37.9,-2.9,18,30.25,10.0,East,4.6,-,N/A,,Clear,100,2012-11-13 14:53:00
8:53 AM,48.9,-0.9,13,30.25,10.0,ENE,10.4,-,N/A,,Clear,70,2012-11-13 15:53:00
9:53 AM,52.0,-0.9,11,30.24,10.0,ENE,11.5,-,N/A,,Clear,70,2012-11-13 16:53:00
10:53 AM,55.0,1.9,12,30.19,10.0,ENE,10.4,-,N/A,,Clear,70,2012-11-13 17:53:00
11:53 AM,57.0,3.0,11,30.18,10.0,ENE,8.1,-,N/A,,Clear,70,2012-11-13 18:53:00
12:53 PM,59.0,5.0,12,30.14,10.0,ESE,6.9,-,N/A,,Clear,110,2012-11-13 19:53:00
1:53 PM,61.0,6.1,11,30.12,10.0,ESE,6.9,-,N/A,,Clear,120,2012-11-13 20:53:00
2:53 PM,61.0,6.1,11,30.12,10.0,SE,3.5,-,N/A,,Clear,130,2012-11-13 21:53:00
3:53 PM,62.1,3.9,10,30.11,10.0,East,10.4,-,N/A,,Clear,80,2012-11-13 22:53:00
4:53 PM,59.0,5.0,12,30.13,10.0,ENE,5.8,-,N/A,,Clear,70,2012-11-13 23:53:00
5:53 PM,51.1,5.0,15,30.18,10.0,East,4.6,-,N/A,,Clear,100,2012-11-14 00:53:00
6:53 PM,46.9,6.1,19,30.21,10.0,NE,4.6,-,N/A,,Clear,40,2012-11-14 01:53:00
7:53 PM,41.0,1.9,20,30.21,10.0,NNE,5.8,-,N/A,,Clear,30,2012-11-14 02:53:00
8:53 PM,39.0,1.0,20,30.21,10.0,Calm,Calm,-,N/A,,Clear,0,2012-11-14 03:53:00
9:53 PM,37.0,5.0,26,30.22,10.0,Calm,Calm,-,N/A,,Clear,0,2012-11-14 04:53:00
10:53 PM,34.0,1.0,25,30.23,10.0,NW,3.5,-,N/A,,Clear,320,2012-11-14 05:53:00
11:53 PM,32.0,-2.0,23,30.21,10.0,NW,5.8,-,N/A,,Clear,320,2012-11-14 06:53:00